AMX331 MMPR-MMMX

Flight info

Callsign AMX331
Flight time 1h 4m
Altitude 31000
Route VOLAT1D VOLAT UT119 ESPOS ESPOS3A
Aircraft B738/M-SDE2E3FGHIRWXY/L

Departure

Time 2026-04-25 19:01
Airport Puerto Vallarta International Airport (MMPR)

Arrival

Time 2026-04-25 20:05
Airport Mexico City Benito Juárez International Airport (MMMX)
Time Latitude Longitude Altitude Speed Heading
2026-04-25 18:41 20.67980 -105.24733 43 ft 0 kts 46°
2026-04-25 18:51 20.67979 -105.24734 43 ft 1 kts 46°
2026-04-25 18:51 20.67972 -105.24741 43 ft 2 kts 46°
2026-04-25 18:51 20.67962 -105.24752 43 ft 2 kts 39°
2026-04-25 18:51 20.67949 -105.24760 43 ft 2 kts 16°
2026-04-25 18:52 20.67934 -105.24762 43 ft 2 kts 356°
2026-04-25 18:52 20.67919 -105.24758 43 ft 2 kts 336°
2026-04-25 18:52 20.67910 -105.24753 43 ft 0 kts 321°
2026-04-25 18:52 20.67905 -105.24747 43 ft 0 kts 318°
2026-04-25 18:54 20.67908 -105.24751 43 ft 1 kts 318°
2026-04-25 18:54 20.67921 -105.24763 43 ft 6 kts 321°
2026-04-25 18:54 20.68016 -105.24815 43 ft 21 kts 356°
2026-04-25 18:55 20.68129 -105.24737 43 ft 19 kts 32°
2026-04-25 18:55 20.68269 -105.24691 43 ft 23 kts 16°
2026-04-25 18:55 20.68432 -105.24638 43 ft 24 kts 17°
2026-04-25 18:55 20.68555 -105.24535 44 ft 21 kts 48°
2026-04-25 18:56 20.68650 -105.24425 46 ft 19 kts 47°
2026-04-25 18:56 20.68729 -105.24335 46 ft 15 kts 47°
2026-04-25 18:56 20.68783 -105.24275 47 ft 7 kts 36°
2026-04-25 18:56 20.68796 -105.24268 47 ft 5 kts 22°
2026-04-25 18:57 20.68863 -105.24282 46 ft 3 kts 320°
2026-04-25 18:57 20.68867 -105.24286 46 ft 1 kts 319°
2026-04-25 18:57 20.68873 -105.24291 46 ft 0 kts 319°
2026-04-25 18:59 20.68915 -105.24370 46 ft 9 kts 256°
2026-04-25 18:59 20.68901 -105.24393 46 ft 0 kts 229°
2026-04-25 19:00 20.68892 -105.24403 46 ft 5 kts 227°
2026-04-25 19:00 20.68675 -105.24649 43 ft 85 kts 227°
2026-04-25 19:01 20.67259 -105.26285 201 ft 194 kts 227°
2026-04-25 19:01 20.66401 -105.27289 1412 ft 173 kts 228°
2026-04-25 19:01 20.65617 -105.28165 2141 ft 181 kts 227°
2026-04-25 19:01 20.64653 -105.29220 2628 ft 202 kts 228°
2026-04-25 19:02 20.62635 -105.31528 3889 ft 236 kts 229°
2026-04-25 19:02 20.61486 -105.32851 4500 ft 253 kts 227°
2026-04-25 19:02 20.60193 -105.34219 5073 ft 270 kts 220°
2026-04-25 19:03 20.57124 -105.35247 6076 ft 297 kts 172°
2026-04-25 19:03 20.54479 -105.34233 6885 ft 314 kts 153°
2026-04-25 19:03 20.52494 -105.33131 7478 ft 328 kts 152°
2026-04-25 19:04 20.48371 -105.30753 8840 ft 345 kts 151°
2026-04-25 19:04 20.46309 -105.29446 9539 ft 351 kts 146°
2026-04-25 19:05 20.43203 -105.25472 10939 ft 359 kts 110°
2026-04-25 19:05 20.41889 -105.20300 12379 ft 368 kts 102°
2026-04-25 19:05 20.41341 -105.17602 13088 ft 372 kts 101°
2026-04-25 19:06 20.40799 -105.14888 13802 ft 376 kts 101°
2026-04-25 19:06 20.39813 -105.09399 15218 ft 383 kts 96°
2026-04-25 19:06 20.39569 -105.06551 15932 ft 386 kts 93°
2026-04-25 19:07 20.39280 -105.00781 17385 ft 390 kts 92°
2026-04-25 19:07 20.39156 -104.97840 18122 ft 392 kts 92°
2026-04-25 19:08 20.38921 -104.92056 19552 ft 393 kts 92°
2026-04-25 19:08 20.38807 -104.89109 20265 ft 393 kts 92°
2026-04-25 19:09 20.38480 -104.80419 22440 ft 390 kts 92°
2026-04-25 19:09 20.38411 -104.78529 22931 ft 388 kts 92°
2026-04-25 19:09 20.38166 -104.71875 24703 ft 378 kts 92°
2026-04-25 19:10 20.38057 -104.69109 25456 ft 372 kts 92°
2026-04-25 19:10 20.37946 -104.66401 26208 ft 365 kts 92°
2026-04-25 19:10 20.37830 -104.63708 26969 ft 357 kts 92°
2026-04-25 19:10 20.37715 -104.61120 27601 ft 351 kts 91°
2026-04-25 19:11 20.37592 -104.58485 27907 ft 356 kts 92°
2026-04-25 19:11 20.37466 -104.55821 28173 ft 361 kts 92°
2026-04-25 19:11 20.37339 -104.53134 28432 ft 366 kts 91°
2026-04-25 19:11 20.37208 -104.50427 28688 ft 371 kts 91°
2026-04-25 19:12 20.37075 -104.47661 28946 ft 376 kts 91°
2026-04-25 19:12 20.36938 -104.44873 29205 ft 381 kts 91°
2026-04-25 19:12 20.36796 -104.42007 29466 ft 385 kts 92°
2026-04-25 19:12 20.36657 -104.39161 29720 ft 390 kts 91°
2026-04-25 19:13 20.36512 -104.36254 29977 ft 394 kts 91°
2026-04-25 19:13 20.36365 -104.33330 30235 ft 398 kts 92°
2026-04-25 19:13 20.36216 -104.30356 30492 ft 402 kts 92°
2026-04-25 19:13 20.36028 -104.27355 30746 ft 407 kts 97°
2026-04-25 19:14 20.35503 -104.24423 31004 ft 411 kts 104°
2026-04-25 19:14 20.34986 -104.22427 31162 ft 414 kts 106°
2026-04-25 19:14 20.33802 -104.18503 31204 ft 425 kts 108°
2026-04-25 19:15 20.31854 -104.12445 31201 ft 444 kts 109°
2026-04-25 19:15 20.29796 -104.06107 31200 ft 463 kts 109°
2026-04-25 19:16 20.27644 -103.99480 31202 ft 482 kts 109°
2026-04-25 19:16 20.25413 -103.92609 31228 ft 499 kts 108°
2026-04-25 19:17 20.23136 -103.85520 31251 ft 509 kts 108°
2026-04-25 19:17 20.20939 -103.78433 31284 ft 505 kts 108°
2026-04-25 19:18 20.18760 -103.71332 31309 ft 505 kts 108°
2026-04-25 19:18 20.16580 -103.64215 31291 ft 504 kts 107°
2026-04-25 19:19 20.14417 -103.57148 31286 ft 504 kts 107°
2026-04-25 19:19 20.12254 -103.50081 31266 ft 505 kts 107°
2026-04-25 19:20 20.10076 -103.42959 31271 ft 503 kts 107°
2026-04-25 19:20 20.07924 -103.35919 31285 ft 505 kts 107°
2026-04-25 19:21 20.05749 -103.28800 31312 ft 503 kts 108°
2026-04-25 19:21 20.02497 -103.18138 31339 ft 504 kts 107°
2026-04-25 19:22 20.00339 -103.11061 31358 ft 504 kts 107°
2026-04-25 19:23 19.97100 -103.00428 31360 ft 503 kts 107°
2026-04-25 19:23 19.93662 -102.89853 31347 ft 505 kts 111°
2026-04-25 19:24 19.91016 -102.82944 31337 ft 504 kts 112°
2026-04-25 19:25 19.85590 -102.69115 31329 ft 504 kts 112°
2026-04-25 19:25 19.82899 -102.62286 31315 ft 503 kts 112°
2026-04-25 19:26 19.80173 -102.55367 31328 ft 505 kts 112°
2026-04-25 19:26 19.77458 -102.48466 31300 ft 504 kts 112°
2026-04-25 19:27 19.75203 -102.42730 31312 ft 503 kts 112°
2026-04-25 19:27 19.72063 -102.34746 31335 ft 504 kts 112°
2026-04-25 19:28 19.69352 -102.27856 31372 ft 504 kts 112°
2026-04-25 19:28 19.66641 -102.20967 31385 ft 504 kts 112°
2026-04-25 19:29 19.63940 -102.14105 31361 ft 504 kts 112°
2026-04-25 19:29 19.61237 -102.07224 31336 ft 503 kts 112°
2026-04-25 19:30 19.58543 -102.00372 31313 ft 504 kts 112°
2026-04-25 19:30 19.55848 -101.93515 31292 ft 503 kts 112°
2026-04-25 19:31 19.53174 -101.86709 31281 ft 503 kts 112°
2026-04-25 19:31 19.50477 -101.79846 31304 ft 503 kts 112°
2026-04-25 19:32 19.47797 -101.73024 31314 ft 502 kts 112°
2026-04-25 19:32 19.45564 -101.67325 31317 ft 503 kts 111°
2026-04-25 19:33 19.42434 -101.59331 31303 ft 503 kts 111°
2026-04-25 19:33 19.39759 -101.52491 31277 ft 502 kts 111°
2026-04-25 19:34 19.37073 -101.45625 31272 ft 503 kts 111°
2026-04-25 19:34 19.34406 -101.38808 31249 ft 502 kts 111°
2026-04-25 19:35 19.31718 -101.31935 31224 ft 501 kts 112°
2026-04-25 19:35 19.29065 -101.25127 31212 ft 502 kts 112°
2026-04-25 19:36 19.26391 -101.18259 31183 ft 502 kts 111°
2026-04-25 19:36 19.23732 -101.11428 31171 ft 501 kts 111°
2026-04-25 19:37 19.21093 -101.04636 31161 ft 502 kts 111°
2026-04-25 19:37 19.18444 -100.97807 31154 ft 501 kts 111°
2026-04-25 19:38 19.15810 -100.91010 31136 ft 501 kts 111°
2026-04-25 19:38 19.13152 -100.84145 31126 ft 501 kts 111°
2026-04-25 19:39 19.10517 -100.77334 31122 ft 500 kts 111°
2026-04-25 19:39 19.07876 -100.70506 31105 ft 500 kts 111°
2026-04-25 19:40 19.05255 -100.63725 31095 ft 501 kts 111°
2026-04-25 19:40 19.02621 -100.56910 31098 ft 500 kts 111°
2026-04-25 19:41 18.99983 -100.50083 31090 ft 500 kts 111°
2026-04-25 19:41 18.98217 -100.45507 31112 ft 500 kts 111°
2026-04-25 19:42 18.94716 -100.36426 31170 ft 500 kts 111°
2026-04-25 19:42 18.92088 -100.29603 31201 ft 500 kts 111°
2026-04-25 19:43 18.89452 -100.22755 31243 ft 500 kts 111°
2026-04-25 19:43 18.86852 -100.15990 31309 ft 499 kts 111°
2026-04-25 19:44 18.84238 -100.09184 31368 ft 500 kts 111°
2026-04-25 19:44 18.81627 -100.02381 31410 ft 500 kts 111°
2026-04-25 19:45 18.79024 -99.95596 31190 ft 501 kts 111°
2026-04-25 19:45 18.77731 -99.92223 30766 ft 491 kts 111°
2026-04-25 19:45 18.76486 -99.88971 30354 ft 476 kts 111°
2026-04-25 19:46 18.75266 -99.85777 29935 ft 462 kts 110°
2026-04-25 19:46 18.74385 -99.82568 29507 ft 447 kts 96°
2026-04-25 19:46 18.74352 -99.79361 29094 ft 431 kts 80°
2026-04-25 19:46 18.74946 -99.76358 28698 ft 419 kts 72°
2026-04-25 19:47 18.75797 -99.73405 28279 ft 415 kts 69°
2026-04-25 19:47 18.76719 -99.70546 27773 ft 419 kts 68°
2026-04-25 19:47 18.77769 -99.67690 27242 ft 413 kts 65°
2026-04-25 19:47 18.78894 -99.64932 26750 ft 404 kts 64°
2026-04-25 19:48 18.80020 -99.62279 26259 ft 397 kts 63°
2026-04-25 19:48 18.81154 -99.59644 25763 ft 389 kts 63°
2026-04-25 19:48 18.82270 -99.57069 25266 ft 382 kts 63°
2026-04-25 19:48 18.83372 -99.54534 24770 ft 376 kts 63°
2026-04-25 19:49 18.84462 -99.52029 24274 ft 369 kts 63°
2026-04-25 19:49 18.84806 -99.51241 24114 ft 367 kts 63°
2026-04-25 19:49 18.86574 -99.47192 23271 ft 357 kts 63°
2026-04-25 19:49 18.87603 -99.44846 22773 ft 352 kts 63°
2026-04-25 19:50 18.89642 -99.40224 21805 ft 342 kts 63°
2026-04-25 19:50 18.90643 -99.37963 21317 ft 346 kts 63°
2026-04-25 19:50 18.91674 -99.35650 20820 ft 349 kts 63°
2026-04-25 19:51 18.92725 -99.33298 20318 ft 349 kts 63°
2026-04-25 19:51 18.93766 -99.30976 19832 ft 348 kts 63°
2026-04-25 19:51 18.94797 -99.28678 19350 ft 348 kts 64°
2026-04-25 19:51 18.95500 -99.26238 18850 ft 351 kts 82°
2026-04-25 19:52 18.95361 -99.23658 18407 ft 351 kts 101°
2026-04-25 19:52 18.94645 -99.21206 18306 ft 339 kts 108°
2026-04-25 19:52 18.93820 -99.18935 18272 ft 326 kts 109°
2026-04-25 19:52 18.92991 -99.16776 18272 ft 314 kts 110°
2026-04-25 19:53 18.92158 -99.14629 18277 ft 316 kts 110°
2026-04-25 19:53 18.91312 -99.12444 18262 ft 324 kts 110°
2026-04-25 19:53 18.90467 -99.10255 18264 ft 325 kts 110°
2026-04-25 19:53 18.89628 -99.08036 18255 ft 323 kts 106°
2026-04-25 19:54 18.89209 -99.05729 18278 ft 319 kts 89°
2026-04-25 19:54 18.89486 -99.03410 18286 ft 316 kts 71°
2026-04-25 19:54 18.90448 -99.01350 18296 ft 313 kts 51°
2026-04-25 19:54 18.91449 -99.00281 18303 ft 311 kts 36°
2026-04-25 19:55 18.94135 -98.99112 17941 ft 316 kts
2026-04-25 19:55 18.96317 -98.99028 17564 ft 313 kts 359°
2026-04-25 19:55 18.98488 -98.99143 17173 ft 309 kts 357°
2026-04-25 19:55 19.00620 -98.99297 16793 ft 306 kts 357°
2026-04-25 19:56 19.02757 -98.99456 16404 ft 303 kts 356°
2026-04-25 19:56 19.04847 -98.99609 16015 ft 300 kts 356°
2026-04-25 19:56 19.06909 -98.99757 15609 ft 293 kts 356°
2026-04-25 19:56 19.08913 -98.99899 15223 ft 285 kts 356°
2026-04-25 19:57 19.10896 -99.00037 14842 ft 279 kts 356°
2026-04-25 19:57 19.12826 -99.00171 14455 ft 272 kts 354°
2026-04-25 19:57 19.14651 -99.00645 14092 ft 269 kts 337°
2026-04-25 19:57 19.16302 -99.01575 13714 ft 269 kts 330°
2026-04-25 19:58 19.17904 -99.02621 13335 ft 270 kts 329°
2026-04-25 19:58 19.19491 -99.03673 12968 ft 269 kts 329°
2026-04-25 19:58 19.21060 -99.04713 12902 ft 256 kts 329°
2026-04-25 19:58 19.22434 -99.05809 12907 ft 241 kts 313°
2026-04-25 19:59 19.23350 -99.07209 12938 ft 223 kts 300°
2026-04-25 19:59 19.24054 -99.08630 12930 ft 211 kts 298°
2026-04-25 19:59 19.24721 -99.10012 12780 ft 212 kts 298°
2026-04-25 19:59 19.25393 -99.11397 12515 ft 211 kts 299°
2026-04-25 20:00 19.26058 -99.12767 12237 ft 208 kts 298°
2026-04-25 20:00 19.26497 -99.13670 12056 ft 207 kts 299°
2026-04-25 20:00 19.27644 -99.15279 11681 ft 204 kts 326°
2026-04-25 20:00 19.28918 -99.15944 11458 ft 201 kts 340°
2026-04-25 20:01 19.31541 -99.16930 11421 ft 204 kts 343°
2026-04-25 20:01 19.32906 -99.17338 11355 ft 205 kts 346°
2026-04-25 20:01 19.34288 -99.17729 11097 ft 200 kts 346°
2026-04-25 20:02 19.35589 -99.18100 10873 ft 186 kts 346°
2026-04-25 20:02 19.36787 -99.18416 10659 ft 169 kts 355°
2026-04-25 20:02 19.37887 -99.18111 10109 ft 171 kts 44°
2026-04-25 20:02 19.38521 -99.17069 9718 ft 163 kts 66°
2026-04-25 20:03 19.38962 -99.15977 9274 ft 161 kts 67°
2026-04-25 20:03 19.39372 -99.14902 8882 ft 155 kts 67°
2026-04-25 20:03 19.39808 -99.13881 8558 ft 153 kts 64°
2026-04-25 20:03 19.40302 -99.12881 8312 ft 154 kts 59°
2026-04-25 20:04 19.40865 -99.11874 8116 ft 159 kts 59°
2026-04-25 20:04 19.41430 -99.10864 7924 ft 154 kts 59°
2026-04-25 20:04 19.41975 -99.09878 7703 ft 155 kts 58°
2026-04-25 20:04 19.42520 -99.08913 7548 ft 154 kts 59°
2026-04-25 20:05 19.43057 -99.07952 7392 ft 149 kts 59°
2026-04-25 20:05 19.43577 -99.07027 7342 ft 132 kts 59°
2026-04-25 20:05 19.43935 -99.06391 7334 ft 72 kts 59°
2026-04-25 20:05 19.44105 -99.06087 7333 ft 24 kts 61°
2026-04-25 20:06 19.44178 -99.05952 7335 ft 22 kts 60°
2026-04-25 20:06 19.44155 -99.05837 7335 ft 17 kts 171°
2026-04-25 20:06 19.44044 -99.05867 7335 ft 15 kts 213°
2026-04-25 20:06 19.43984 -99.05952 7333 ft 16 kts 238°
2026-04-25 20:07 19.43900 -99.06104 7334 ft 30 kts 240°
2026-04-25 20:07 19.43794 -99.06295 7334 ft 28 kts 239°
2026-04-25 20:07 19.43694 -99.06474 7336 ft 29 kts 239°
2026-04-25 20:07 19.43578 -99.06678 7340 ft 32 kts 229°
2026-04-25 20:08 19.43422 -99.06805 7340 ft 24 kts 251°
2026-04-25 20:08 19.43350 -99.06956 7340 ft 22 kts 240°
2026-04-25 20:08 19.43270 -99.07114 7341 ft 24 kts 255°
2026-04-25 20:08 19.43236 -99.07285 7341 ft 22 kts 242°
2026-04-25 20:09 19.43151 -99.07426 7345 ft 21 kts 238°
2026-04-25 20:09 19.43078 -99.07554 7347 ft 21 kts 239°
2026-04-25 20:09 19.42984 -99.07723 7347 ft 28 kts 239°
2026-04-25 20:09 19.42839 -99.07849 7345 ft 26 kts 207°
2026-04-25 20:10 19.42690 -99.07838 7345 ft 21 kts 149°
2026-04-25 20:10 19.42598 -99.07846 7345 ft 12 kts 240°
2026-04-25 20:10 19.42549 -99.07936 7346 ft 16 kts 240°
2026-04-25 20:10 19.42493 -99.08036 7346 ft 14 kts 229°
2026-04-25 20:11 19.42413 -99.08043 7347 ft 10 kts 168°
2026-04-25 20:11 19.42359 -99.08038 7346 ft 5 kts 185°
2026-04-25 20:11 19.42326 -99.08042 7346 ft 2 kts 187°
2026-04-25 20:11 19.42313 -99.08044 7346 ft 0 kts 187°
2026-04-25 20:12 19.42312 -99.08044 7346 ft 0 kts 187°